Regional Weather Roundup
Issued by NWS

Home | Current Version | Previous Version | Graphics & Text | Print | Product List | Glossary Off
Versions: 1 2 3 4 5 6 7 8 9 10 11 12 13 14 15 16 17 18 19 20 21 22 23 24 25 26 27 28 29 30 31 32 33 34 35 36 37 38 39 40 41 42 43 44 45 46 47 48 49 50

000
ASUS43 KDMX 301307
RWRIA

WEATHER ROUNDUP FOR IOWA
NATIONAL WEATHER SERVICE DES MOINES IA
700 AM CST FRI JAN 30 2015

NOTE: "FAIR" INDICATES FEW OR NO CLOUDS BELOW 12,000 FEET WITH NO
SIGNIFICANT WEATHER AND/OR OBSTRUCTIONS TO VISIBILITY.

* - THESE STATIONS ARE NOT NWS STATIONS...THUS NOT UNDER NWS
QUALITY CONTROL.  THEY ALSO DO NOT REPORT WEATHER SUCH
AS PRECIPITATION OR FOG.

IAZ001>003-012>014-020>022-031>034-043>046-301400-
   NORTHWEST IOWA

CITY           SKY/WX    TMP DP  RH WIND       PRES   REMARKS
CARROLL *      CLEAR     12  10  92 CALM      30.52S
CHEROKEE *     CLEAR     14  12  92 SE3       30.50F
DENISON *      CLEAR     16  14  93 CALM      30.49S
LE MARS *      CLOUDY    18  16  93 S5        30.50S WCI  11
ORANGE CITY *  CLEAR     18  14  86 CALM      30.48R
SHELDON *      MOCLDY    16  14  93 E6        30.47S WCI   7
SIOUX CITY     PTCLDY    18  15  88 S7        30.51S WCI   9
SPENCER          N/A     14   9  80 S5        30.50R WCI   6
STORM LAKE *   CLEAR     12  10  92 CALM      30.49F
$$

IAZ055>058-069>071-079>083-090>094-301400-
   SOUTHWEST IOWA

CITY           SKY/WX    TMP DP  RH WIND       PRES   REMARKS
ATLANTIC *     CLEAR     14  10  85 CALM      30.52S
AUDUBON *      CLEAR     10   9  92 CALM      30.51S
CLARINDA *     CLEAR     16  14  93 CALM      30.55F
COUNCIL BLFS * CLEAR     18  16  93 SE6       30.50F WCI   9
CRESTON *      CLEAR     12  10  92 NE6       30.51S WCI   3
HARLAN  *      CLEAR     14  14 100 CALM      30.55S
LAMONI         CLEAR     16  13  88 NE5       30.52S WCI   9
RED OAK *      CLEAR     14  12  92 CALM      30.53F
SHENANDOAH *   CLEAR     16  14  93 CALM      30.55R
$$

IAZ047>049-059>061-072>074-084-301400-
   CENTRAL IOWA

CITY           SKY/WX    TMP DP  RH WIND       PRES   REMARKS
AMES           CLEAR     15  11  83 CALM      30.55R
ANKENY *       CLEAR     14  10  85 CALM      30.56R
CHARITON *     CLEAR     16  14  93 N3        30.53F
DES MOINES     CLEAR     18  12  77 N3        30.55S
GRINNELL*      CLEAR     14  12  92 N5        30.54R WCI   6
KNOXVILLE *    CLEAR     16  12  86 NW5       30.54R WCI   9
MARSHALLTOWN     N/A     14  10  84 NE5       30.52S WCI   6
PELLA *        CLEAR     14  12  92 NW3       30.56S
PERRY *          N/A     12  12 100 CALM      30.54F
$$

IAZ004>006-015-016-023>025-035-036-301400-
   NORTH CENTRAL IOWA

CITY           SKY/WX    TMP DP  RH WIND       PRES   REMARKS
ALGONA *       CLEAR     14  10  85 CALM      30.52S
CLARION *      CLEAR     14  12  92 CALM      30.52S
ESTHERVILLE      N/A     12   9  87 SW3       30.49F
FORT DODGE *   CLEAR     12   7  79 CALM      30.54R
MASON CITY     CLEAR      9   7  92 CALM      30.51F
FOREST CITY *  CLEAR     12   9  85 CALM      30.50S
IOWA FALLS *     N/A     16  12  86 CALM      30.53R
$$

IAZ007>011-017>019-026>030-037>042-050>054-066-301400-
   NORTHEAST IOWA

CITY           SKY/WX    TMP DP  RH WIND       PRES   REMARKS
CEDAR RAPIDS   CLEAR     14  10  84 N6        30.51S WCI   5
CHARLES CITY * CLEAR     12   7  79 NE5       30.52F WCI   4
CLINTON *      CLEAR     14   7  73 N7        30.55R WCI   4
DECORAH *      PTCLDY    10   5  79 N6        30.50S WCI   1
DUBUQUE        CLEAR     12   7  80 N7        30.50R WCI   1
MONTICELLO *   CLEAR     14  10  85 N3        30.52R
OELWEIN *      PTCLDY    12   7  79 N3        30.52S
WATERLOO       CLEAR     10   7  87 N5        30.53S WCI   2
$$

IAZ064-065-067-068-078-301400-
   EAST CENTRAL IOWA

CITY           SKY/WX    TMP DP  RH WIND       PRES   REMARKS
DAVENPORT      CLEAR     14   8  77 N6        30.52R WCI   5
IOWA CITY      CLEAR     18  11  74 N7        30.55S WCI   9
MT. PLEASANT * CLEAR     19  16  86 NW7       30.55R WCI  10
MUSCATINE *    CLEAR     18  12  79 N5        30.55S WCI  11
QUAD CITIES    CLEAR     19  10  68 N3        30.52S
$$

IAZ062-063-075>077-085>089-095>099-301400-
   SOUTHEAST IOWA

CITY           SKY/WX    TMP DP  RH WIND       PRES   REMARKS
BURLINGTON     CLEAR     21  16  81 N6        30.53R WCI  13
FAIRFIELD *    CLEAR     18  14  86 NW5       30.55R WCI  11
FORT MADISON * CLEAR     19  16  86 NW3       30.54S
KEOKUK *       CLEAR     21  16  79 NW5       30.55R WCI  15
OSKALOOSA *      N/A     16  12  86 N5        30.55R WCI   9
CENTERVILLE *  CLEAR     18  16  93 N3        30.54S
OTTUMWA        CLEAR     14  11  87 N5        30.53S WCI   6
WASHINGTON *   CLEAR     19  16  86 N7        30.54S WCI  10
$$

ABBREVIATIONS USED IN REMARKS
   TC - TEMPERATURES IN CELSIUS
  WCI - WIND CHILL INDEX
   HX - HEAT INDEX
  VSB - VISIBILITY
$$



USA.gov is the U.S. government's official web portal to all federal, state and local government web resources and services.